N414AR KSUA-KF45

Flight info

Callsign N414AR
Flight time 0h 13m
Altitude 6000
Route DCT YIGBO DCT
Aircraft C414/L-SBDFGRY/S

Departure

Time 2026-05-06 16:31
Airport Witham Field (KSUA)

Arrival

Time 2026-05-06 16:44
Airport North Palm Beach County General Aviation Airport (KF45)
Time Latitude Longitude Altitude Speed Heading
2026-05-06 16:20 27.17939 -80.22682 22 ft 0 kts 20°
2026-05-06 16:27 27.17943 -80.22681 22 ft 2 kts 340°
2026-05-06 16:28 27.17971 -80.22698 23 ft 5 kts 332°
2026-05-06 16:28 27.17992 -80.22750 24 ft 10 kts 290°
2026-05-06 16:28 27.18021 -80.22841 25 ft 15 kts 292°
2026-05-06 16:28 27.18061 -80.22958 23 ft 13 kts 294°
2026-05-06 16:29 27.18078 -80.22998 23 ft 0 kts 342°
2026-05-06 16:29 27.18088 -80.22998 23 ft 4 kts 14°
2026-05-06 16:29 27.18127 -80.22983 24 ft 8 kts 18°
2026-05-06 16:30 27.18146 -80.22941 25 ft 8 kts 112°
2026-05-06 16:30 27.18143 -80.22934 25 ft 0 kts 112°
2026-05-06 16:30 27.18088 -80.22770 27 ft 50 kts 110°
2026-05-06 16:30 27.17910 -80.22222 46 ft 94 kts 108°
2026-05-06 16:31 27.17665 -80.21458 216 ft 113 kts 110°
2026-05-06 16:31 27.17376 -80.20580 418 ft 124 kts 112°
2026-05-06 16:31 27.17037 -80.19654 524 ft 133 kts 113°
2026-05-06 16:31 27.16460 -80.18840 689 ft 139 kts 149°
2026-05-06 16:32 27.15497 -80.18704 893 ft 148 kts 191°
2026-05-06 16:32 27.14663 -80.19378 1142 ft 152 kts 233°
2026-05-06 16:32 27.14078 -80.20363 1365 ft 151 kts 224°
2026-05-06 16:32 27.13254 -80.21101 1580 ft 152 kts 214°
2026-05-06 16:33 27.12388 -80.21795 1838 ft 154 kts 213°
2026-05-06 16:33 27.11536 -80.22526 2067 ft 154 kts 212°
2026-05-06 16:33 27.10649 -80.23190 2284 ft 156 kts 212°
2026-05-06 16:34 27.08831 -80.24647 2618 ft 163 kts 214°
2026-05-06 16:34 27.07903 -80.25392 2863 ft 165 kts 215°
2026-05-06 16:34 27.06965 -80.26144 2964 ft 169 kts 214°
2026-05-06 16:34 27.06002 -80.26917 3107 ft 171 kts 215°
2026-05-06 16:35 27.05031 -80.27700 3257 ft 172 kts 215°
2026-05-06 16:35 27.04056 -80.28480 3409 ft 172 kts 215°
2026-05-06 16:35 27.03075 -80.29261 3530 ft 172 kts 215°
2026-05-06 16:35 27.02096 -80.30045 3683 ft 173 kts 215°
2026-05-06 16:36 27.01114 -80.30832 3838 ft 173 kts 215°
2026-05-06 16:36 27.00128 -80.31619 3965 ft 174 kts 215°
2026-05-06 16:36 26.99137 -80.32411 3976 ft 180 kts 215°
2026-05-06 16:36 26.98105 -80.33237 3982 ft 183 kts 215°
2026-05-06 16:37 26.97062 -80.34071 3986 ft 184 kts 215°
2026-05-06 16:37 26.96011 -80.34911 3985 ft 185 kts 215°
2026-05-06 16:37 26.94968 -80.35744 3985 ft 186 kts 215°
2026-05-06 16:37 26.93910 -80.36588 3981 ft 187 kts 215°
2026-05-06 16:38 26.92852 -80.37433 3982 ft 187 kts 215°
2026-05-06 16:38 26.91791 -80.38281 3983 ft 187 kts 215°
2026-05-06 16:38 26.90728 -80.39128 3984 ft 187 kts 215°
2026-05-06 16:38 26.89665 -80.39976 3982 ft 187 kts 215°
2026-05-06 16:39 26.88613 -80.40816 3980 ft 188 kts 215°
2026-05-06 16:39 26.87549 -80.41664 3981 ft 188 kts 215°
2026-05-06 16:39 26.86478 -80.42502 3979 ft 187 kts 211°
2026-05-06 16:39 26.85241 -80.42898 3971 ft 186 kts 179°
2026-05-06 16:40 26.84010 -80.42497 3870 ft 185 kts 147°
2026-05-06 16:40 26.83178 -80.41455 3741 ft 182 kts 115°
2026-05-06 16:40 26.82931 -80.40107 3603 ft 175 kts 87°
2026-05-06 16:40 26.83054 -80.38779 3464 ft 169 kts 84°
2026-05-06 16:41 26.83162 -80.37475 3318 ft 166 kts 85°
2026-05-06 16:41 26.83259 -80.36188 3166 ft 165 kts 85°
2026-05-06 16:41 26.83354 -80.34908 2977 ft 166 kts 85°
2026-05-06 16:41 26.83445 -80.33624 2769 ft 169 kts 85°
2026-05-06 16:42 26.83543 -80.32306 2554 ft 170 kts 84°
2026-05-06 16:42 26.83645 -80.31006 2338 ft 161 kts 85°
2026-05-06 16:42 26.83733 -80.29819 2059 ft 145 kts 85°
2026-05-06 16:42 26.83816 -80.28707 1762 ft 140 kts 85°
2026-05-06 16:43 26.83892 -80.27654 1473 ft 133 kts 85°
2026-05-06 16:43 26.83968 -80.26674 1243 ft 120 kts 85°
2026-05-06 16:43 26.84029 -80.25759 945 ft 116 kts 85°
2026-05-06 16:43 26.84098 -80.24850 594 ft 120 kts 85°
2026-05-06 16:44 26.84189 -80.23987 291 ft 108 kts 85°
2026-05-06 16:44 26.84232 -80.23145 127 ft 106 kts 89°
2026-05-06 16:44 26.84279 -80.22346 34 ft 97 kts 85°
2026-05-06 16:44 26.84322 -80.21743 27 ft 42 kts 84°
2026-05-06 16:45 26.84349 -80.21677 27 ft 5 kts 344°
2026-05-06 16:45 26.84392 -80.21685 28 ft 5 kts 339°
2026-05-06 16:45 26.84402 -80.21691 29 ft 0 kts 320°
2026-05-06 16:45 26.84409 -80.21717 29 ft 7 kts 262°
2026-05-06 16:46 26.84400 -80.21806 29 ft 15 kts 262°
2026-05-06 16:46 26.84389 -80.21964 28 ft 24 kts 265°
2026-05-06 16:46 26.84377 -80.22117 29 ft 23 kts 265°
2026-05-06 16:46 26.84363 -80.22301 29 ft 18 kts 262°
2026-05-06 16:47 26.84352 -80.22430 29 ft 6 kts 266°
2026-05-06 16:47 26.84347 -80.22521 29 ft 18 kts 263°
2026-05-06 16:47 26.84338 -80.22651 29 ft 9 kts 266°
2026-05-06 16:47 26.84298 -80.22685 30 ft 13 kts 174°
2026-05-06 16:48 26.84256 -80.22674 31 ft 1 kts 115°
2026-05-06 16:48 26.84254 -80.22665 31 ft 3 kts 84°
2026-05-06 16:48 26.84267 -80.22495 34 ft 49 kts 86°
2026-05-06 16:48 26.84309 -80.21925 57 ft 92 kts 85°
2026-05-06 16:49 26.84376 -80.21114 207 ft 115 kts 85°
2026-05-06 16:49 26.84451 -80.20158 424 ft 132 kts 86°
2026-05-06 16:49 26.84515 -80.19440 494 ft 144 kts 83°
2026-05-06 16:49 26.84620 -80.18286 666 ft 153 kts 84°
2026-05-06 16:50 26.84753 -80.17080 655 ft 167 kts 83°
2026-05-06 16:50 26.84903 -80.15720 484 ft 182 kts 83°
2026-05-06 16:50 26.85053 -80.14324 487 ft 179 kts 84°
2026-05-06 16:50 26.85241 -80.12972 469 ft 178 kts 74°
2026-05-06 16:51 26.85873 -80.11824 616 ft 176 kts 43°
2026-05-06 16:51 26.86976 -80.11312 864 ft 172 kts
2026-05-06 16:51 26.88139 -80.11549 1111 ft 171 kts 336°
2026-05-06 16:51 26.89021 -80.12416 1372 ft 169 kts 307°
2026-05-06 16:52 26.89695 -80.13485 1659 ft 167 kts 307°
2026-05-06 16:52 26.90386 -80.14533 1940 ft 167 kts 307°
2026-05-06 16:52 26.91070 -80.15576 2142 ft 165 kts 308°
2026-05-06 16:52 26.91739 -80.16593 2336 ft 163 kts 308°
2026-05-06 16:53 26.92414 -80.17623 2531 ft 164 kts 308°
2026-05-06 16:53 26.93088 -80.18654 2770 ft 163 kts 307°
2026-05-06 16:53 26.93762 -80.19676 2998 ft 162 kts 308°
2026-05-06 16:53 26.94447 -80.20688 3243 ft 163 kts 308°
2026-05-06 16:54 26.95117 -80.21690 3463 ft 162 kts 307°
2026-05-06 16:54 26.95785 -80.22718 3673 ft 162 kts 307°
2026-05-06 16:54 26.96454 -80.23744 3927 ft 162 kts 307°
2026-05-06 16:54 26.97148 -80.24792 3980 ft 171 kts 307°
2026-05-06 16:55 26.97846 -80.25850 3978 ft 170 kts 307°
2026-05-06 16:55 26.98547 -80.26913 3980 ft 169 kts 307°
2026-05-06 16:55 26.99247 -80.27975 3985 ft 170 kts 307°
2026-05-06 16:55 26.99948 -80.29039 3980 ft 169 kts 306°
2026-05-06 16:56 27.00637 -80.30087 3979 ft 169 kts 307°
2026-05-06 16:56 27.01333 -80.31143 3978 ft 168 kts 307°
2026-05-06 16:56 27.02030 -80.32204 3976 ft 169 kts 307°
2026-05-06 16:56 27.02722 -80.33253 3983 ft 170 kts 307°
2026-05-06 16:57 27.03428 -80.34323 3981 ft 171 kts 307°
2026-05-06 16:57 27.04134 -80.35397 3984 ft 171 kts 307°
2026-05-06 16:57 27.04850 -80.36484 3893 ft 173 kts 307°
2026-05-06 16:57 27.05561 -80.37568 3762 ft 172 kts 307°
2026-05-06 16:58 27.06280 -80.38662 3590 ft 176 kts 307°
2026-05-06 16:58 27.07010 -80.39772 3415 ft 177 kts 307°
2026-05-06 16:58 27.07740 -80.40884 3248 ft 177 kts 307°
2026-05-06 16:58 27.08476 -80.42003 3077 ft 178 kts 307°
2026-05-06 16:59 27.09203 -80.43114 2983 ft 175 kts 306°
2026-05-06 16:59 27.09901 -80.44172 2967 ft 166 kts 308°
2026-05-06 16:59 27.10573 -80.45200 2968 ft 161 kts 307°
2026-05-06 16:59 27.11236 -80.46195 2966 ft 157 kts 311°
2026-05-06 17:00 27.12158 -80.46865 2967 ft 163 kts 348°
2026-05-06 17:00 27.13270 -80.46776 2900 ft 163 kts 22°
2026-05-06 17:00 27.14297 -80.46261 2883 ft 165 kts 25°
2026-05-06 17:00 27.15371 -80.45794 2906 ft 166 kts 21°
2026-05-06 17:01 27.16460 -80.45327 2864 ft 168 kts 22°
2026-05-06 17:01 27.17557 -80.44869 2799 ft 169 kts 21°
2026-05-06 17:01 27.18668 -80.44415 2716 ft 170 kts 21°
2026-05-06 17:01 27.19762 -80.43966 2643 ft 166 kts 21°
2026-05-06 17:02 27.20840 -80.43523 2554 ft 163 kts 21°
2026-05-06 17:02 27.21883 -80.43093 2489 ft 158 kts 22°
2026-05-06 17:02 27.22880 -80.42685 2495 ft 150 kts 22°
2026-05-06 17:02 27.23749 -80.42071 2390 ft 149 kts 53°
2026-05-06 17:03 27.24058 -80.41032 2305 ft 139 kts 94°
2026-05-06 17:03 27.23804 -80.40017 2232 ft 137 kts 112°
2026-05-06 17:03 27.23453 -80.39016 2101 ft 138 kts 110°
2026-05-06 17:03 27.23112 -80.37997 1983 ft 140 kts 111°
2026-05-06 17:04 27.22774 -80.36978 1833 ft 138 kts 110°
2026-05-06 17:04 27.22437 -80.35966 1664 ft 138 kts 111°
2026-05-06 17:04 27.22103 -80.34956 1569 ft 137 kts 109°
2026-05-06 17:04 27.21777 -80.33953 1452 ft 136 kts 110°
2026-05-06 17:05 27.21448 -80.32969 1339 ft 137 kts 109°
2026-05-06 17:05 27.21122 -80.31971 1237 ft 134 kts 108°
2026-05-06 17:05 27.20796 -80.30992 1129 ft 134 kts 110°
2026-05-06 17:05 27.20476 -80.30017 1067 ft 131 kts 108°
2026-05-06 17:06 27.20166 -80.29063 936 ft 128 kts 110°
2026-05-06 17:06 27.19865 -80.28156 883 ft 117 kts 109°
2026-05-06 17:06 27.19593 -80.27330 800 ft 113 kts 108°
2026-05-06 17:06 27.19316 -80.26494 663 ft 114 kts 110°
2026-05-06 17:07 27.19046 -80.25685 582 ft 106 kts 109°
2026-05-06 17:07 27.18792 -80.24926 403 ft 102 kts 111°
2026-05-06 17:07 27.18552 -80.24181 241 ft 102 kts 109°
2026-05-06 17:07 27.18312 -80.23449 112 ft 101 kts 110°
2026-05-06 17:08 27.18070 -80.22714 32 ft 97 kts 110°
2026-05-06 17:08 27.17868 -80.22103 25 ft 55 kts 109°
2026-05-06 17:08 27.17799 -80.22020 26 ft 9 kts 207°
2026-05-06 17:08 27.17740 -80.22044 24 ft 11 kts 201°
2026-05-06 17:09 27.17733 -80.22109 23 ft 3 kts 270°
2026-05-06 17:09 27.17708 -80.22139 24 ft 8 kts 229°
2026-05-06 17:09 27.17707 -80.22214 23 ft 9 kts 232°
2026-05-06 17:09 27.17690 -80.22220 24 ft 0 kts 191°